Simultaneous Nadir Overpasses (SNOs) Predictions

Prediction of SNOs between AQUA and METOP-A Satellite Orbit:

Table of predicted SNOs for the next 14.0 days since TLE Epoch: 4/3/2020
Index Date (AQUA) Time (AQUA) Lat,Lon (AQUA) SZA (AQUA ) Date (METOP-A) Time (METOP-A) Lat,Lon (METOP-A) SZA (METOP-A ) Distance(km) Time Diff (sec)
1 04/03/2020 22:32:01 -75.72, 11.66 109.85 04/03/2020 22:30:53 -75.66, 9.53 109.77 58.93 68
2 04/03/2020 23:21:36 76.08, 178.22 70.55 04/03/2020 23:21:24 76.09, 178.22 70.56 1.09 12
3 04/04/2020 00:11:02 -76.11, -14.23 109.44 04/04/2020 00:12:05 -76.11, -14.37 109.44 3.68 63
4 04/06/2020 18:06:23 -76.05, 77.10 110.55 04/06/2020 18:05:09 -75.98, 76.89 110.59 9.52 74
5 04/06/2020 18:55:52 76.11,-115.47 69.51 04/06/2020 18:55:46 76.12,-115.32 69.51 4.01 6
6 04/06/2020 19:45:18 -76.14, 52.09 110.47 04/06/2020 19:46:27 -76.15, 52.10 110.48 0.63 69
7 04/09/2020 13:40:37 -76.04, 143.55 111.62 04/09/2020 13:39:29 -76.06, 143.51 111.58 2.19 68
8 04/09/2020 14:30:06 76.11, -49.02 68.45 04/09/2020 14:30:08 76.10, -49.02 68.44 0.95 2
9 04/09/2020 15:19:34 -76.23, 118.23 111.43 04/09/2020 15:20:46 -76.27, 118.89 111.44 17.83 72
10 04/12/2020 09:14:53 -76.09,-150.17 112.60 04/12/2020 09:13:51 -76.09,-150.03 112.59 3.77 62
11 04/12/2020 10:04:21 76.11, 17.41 67.41 04/12/2020 10:04:30 76.13, 17.43 67.43 1.83 9
12 04/12/2020 10:53:55 -76.52,-176.29 112.13 04/12/2020 10:55:03 -76.53,-173.84 112.26 63.38 68
13 04/15/2020 04:49:08 -76.10, -83.76 113.61 04/15/2020 04:48:14 -76.08, -83.73 113.63 3.19 54
14 04/15/2020 05:38:36 76.13, 83.81 66.41 04/15/2020 05:38:53 76.11, 83.71 66.39 3.05 17




NCC Satellite Simultaneous Nadir Overpasses (SNOs) Prediction Service
